Weather History for Eau Claire, WI

Change the Weather History Date:

Friday, May 24, 2013

  Actual Average Record
Temperature  
Mean Temperature 50 °F 60 °F  
Max Temperature 67 °F 72 °F 93 °F (2010)
Min Temperature 33 °F 48 °F 33 °F (1917)
Degree Days  
Heating Degree Days 15 6  
Month to date heating degree days 271 219  
Since 1 July heating degree days 8200 7860  
Cooling Degree Days 0 1  
Month to date cooling degree days 17 18  
Year to date cooling degree days 20 22  
Moisture  
Dew Point 35 °F    
Average Humidity 63    
Maximum Humidity 96    
Minimum Humidity 29    
Precipitation  
Precipitation 0.00 in 0.11 in 1.86 in (1945)
Month to date precipitation 6.15 2.63  
Year to date precipitation 16.92 8.81  
Snow  
Snow 0.00 in 0.00 in T in (1925)
Month to date snowfall 9.3 0.2  
Since 1 July snowfall 84.3 47.0  
Snow Depth 0.00 in    
Sea Level Pressure  
Sea Level Pressure 30.35 in    
Wind  
Wind Speed 6 mph (SSE)    
Max Wind Speed 14 mph    
Max Gust Speed 20 mph    
Visibility 10 miles    
Events      
T = Trace of Precipitation, MM = Missing Value Source: NWS Daily Summary

Daily Weather History Graph

Daily Weather History Graph

Search for Another Location

Airport:

Trip Planner

Search our weather history database for the weather conditions in past years. The results will help you decide how hot, cold, wet, or windy it might be!

Date:

Astronomy

May. 24, 2013 Rise Set
Actual Time 5:28 AM CDT 8:37 PM CDT
Civil Twilight 4:52 AM CDT 9:13 PM CDT
Nautical Twilight 4:07 AM CDT 9:59 PM CDT
Astronomical Twilight 3:12 AM CDT 10:54 PM CDT
Moon 8:19 PM CDT (5/24) 5:03 AM CDT (5/24)
Length of Visible Light 16h 20m
Length of Day
15h 09m
Full, 100% of the Moon is Illuminated
May 24
Full
May 24
Full
May 31
Last Quarter
Jun 8
New
Jun 16
First Quarter

Hourly Weather History & Observations

Time (CDT) Temp. Windchill Dew Point Humidity Pressure Visibility Wind Dir Wind Speed Gust Speed Precip Events Conditions
12:56 AM 41.0 °F 39.0 °F 32.0 °F 70% 30.37 in 10.0 mi North 3.5 mph - N/A   Clear
1:56 AM 37.9 °F - 33.1 °F 83% 30.37 in 10.0 mi Calm Calm - N/A   Clear
2:56 AM 39.9 °F - 35.1 °F 83% 30.37 in 10.0 mi Calm Calm - N/A   Clear
3:56 AM 37.9 °F 34.4 °F 34.0 °F 86% 30.38 in 10.0 mi East 4.6 mph - N/A   Clear
4:56 AM 35.1 °F - 32.0 °F 89% 30.39 in 10.0 mi Calm Calm - N/A   Clear
5:56 AM 33.1 °F 27.7 °F 32.0 °F 96% 30.40 in 10.0 mi NE 5.8 mph - N/A   Clear
6:56 AM 42.1 °F - 35.1 °F 76% 30.42 in 10.0 mi Calm Calm - N/A   Clear
7:56 AM 46.9 °F - 33.1 °F 59% 30.44 in 10.0 mi SSE 4.6 mph - N/A   Clear
8:56 AM 51.1 °F - 32.0 °F 48% 30.44 in 10.0 mi South 6.9 mph - N/A   Clear
9:56 AM 53.1 °F - 34.0 °F 48% 30.43 in 10.0 mi SE 9.2 mph - N/A   Clear
10:56 AM 55.9 °F - 33.1 °F 42% 30.41 in 10.0 mi SSE 8.1 mph - N/A   Clear
11:56 AM 57.9 °F - 33.1 °F 39% 30.40 in 10.0 mi SSE 9.2 mph 16.1 mph N/A   Clear
12:56 PM 61.0 °F - 32.0 °F 34% 30.38 in 10.0 mi South 8.1 mph - N/A   Clear
1:56 PM 63.0 °F - 34.0 °F 34% 30.35 in 10.0 mi South 6.9 mph - N/A   Clear
2:56 PM 64.9 °F - 32.0 °F 29% 30.31 in 10.0 mi SSE 8.1 mph - N/A   Clear
3:56 PM 64.9 °F - 32.0 °F 29% 30.28 in 10.0 mi SSE 8.1 mph - N/A   Clear
4:56 PM 66.9 °F - 34.0 °F 30% 30.28 in 10.0 mi South 12.7 mph 19.6 mph N/A   Clear
5:56 PM 64.9 °F - 34.0 °F 32% 30.29 in 10.0 mi SSW 4.6 mph - N/A   Clear
6:56 PM 64.0 °F - 37.0 °F 37% 30.31 in 10.0 mi SW 6.9 mph - N/A   Clear
7:56 PM 62.1 °F - 37.9 °F 41% 30.27 in 10.0 mi South 4.6 mph - N/A   Clear
8:56 PM 61.0 °F - 39.0 °F 44% 30.27 in 10.0 mi SE 4.6 mph - N/A   Clear
9:56 PM 60.1 °F - 39.9 °F 47% 30.27 in 10.0 mi South 5.8 mph - N/A   Clear
10:56 PM 59.0 °F - 39.9 °F 49% 30.28 in 10.0 mi South 3.5 mph - N/A   Clear
11:56 PM 57.9 °F - 41.0 °F 53% 30.27 in 10.0 mi South 9.2 mph - N/A   Scattered Clouds